Regional Weather Roundup
Issued by NWS

Home | Current Version | Previous Version | Text Only | Print | Product List | Glossary Off
Versions: 1 2 3 4 5 6 7 8 9 10 11 12 13 14 15 16 17 18 19 20 21 22 23 24 25 26 27 28 29 30 31 32 33 34 35 36 37 38 39 40 41 42 43 44 45 46 47 48 49 50

000
ASUS43 KMPX 241210
RWRMN
WEATHER ROUNDUP FOR MINNESOTA
NATIONAL WEATHER SERVICE TWIN CITIES/CHANHASSEN MN
700 AM CDT MON JUL 24 2017


NOTE: "FAIR" INDICATES FEW OR NO CLOUDS BELOW 12,000 FEET WITH NO
SIGNIFICANT WEATHER AND/OR OBSTRUCTIONS TO VISIBILITY. N/A MEANS
CURRENT SKY AND/OR WEATHER CONDITIONS ARE NOT AVAILABLE.

MNZ060>063-068>070-241300-
   Twin Cities Metro

CITY           SKY/WX    TMP DP  RH WIND       PRES   REMARKS
TWIN CITIES    SUNNY     62  56  80 E6        30.06R
6HR MIN TEMP:  60; 6HR MAX TEMP:  64;

ST PAUL        SUNNY     60  58  92 SE5       30.07R
CRYSTAL        SUNNY     60  55  83 E3        30.05R
BLAINE         SUNNY     57  57 100 CALM      30.06S
LAKEVILLE      SUNNY     55  55 100 CALM      30.06R FOG
EDEN PRAIRIE   SUNNY     63  57  81 E6        30.05R
6HR MIN TEMP:  60; 6HR MAX TEMP:  65;

SOUTH ST PAUL  SUNNY     61  56  85 NE3       30.06S
LAKE ELMO      FAIR      57  57 100 E5        30.08R
$$
MNZ001>005-007-008-013>017-022>024-027-028-241300-
   Northwest Minnesota

CITY           SKY/WX    TMP DP  RH WIND       PRES   REMARKS
BEMIDJI        SUNNY     58  55  88 S5        30.04S
HALLOCK        CLEAR     59  57  94 SE7       29.96S
ROSEAU         SUNNY     61  55  82 S8        29.99S
WARROAD        SUNNY     61  55  82 S3        30.01R
THIEF RVR FALL CLEAR     60  58  92 S5        30.02R
CROOKSTON      CLEAR     63  61  94 S8        29.99R
FOSSTON        CLEAR     61  57  88 S9        30.01S
DETROIT LAKES  CLEAR     61  59  94 S5        30.05S
MOORHEAD       CLEAR     63  59  88 SE9       30.00F
PARK RAPIDS    MOCLDY    57  56  96 SE3       30.05S FOG
MAHNOMEN       FAIR      61  59  93 S6        30.01F
$$
MNZ006-009>011-018-025>026-241300-
   North Central Minnesota

CITY           SKY/WX    TMP DP  RH WIND       PRES   REMARKS
BAUDETTE       SUNNY     59  58  96 S6        30.01R
FLAG ISLAND    SUNNY     66  61  82 S5        30.00R HAZE
INTL FALLS     SUNNY     58  55  90 VRB3      30.04R
6HR MIN TEMP:  49; 6HR MAX TEMP:  58;

WASKISH        SUNNY     61  57  88 S3          N/A
BIG FORK       SUNNY     54  52  94 CALM      30.06R
LONGVILLE      SUNNY     54  54 100 SE3       30.06R
GRAND RAPIDS   SUNNY     53  52  96 S3        30.09R
CRANE LAKE     SUNNY     52  52 100 CALM      30.08S
ORR            SUNNY     54  52  94 SE3       30.05S
COOK           SUNNY     50  50 100 CALM      30.08S
WALKER         FAIR      58  55  91 CALM      30.05R
$$
MNZ012-019>021-037-241300-
   Northeast Minnesota

CITY           SKY/WX    TMP DP  RH WIND       PRES   REMARKS
DULUTH         FOG       53  53 100 S3        30.09R VSB 1/8
6HR MIN TEMP:  49; 6HR MAX TEMP:  55;

ELY            SUNNY     52  52 100 CALM      30.09R
HIBBING        PTSUNNY   47  47 100 CALM      30.08S
EVELETH        FOG       47  45  92 CALM      30.10R VSB 1/4
DULUTH HARBOR  CLOUDY    55  55 100 CALM      30.10R FOG
TWO HARBORS    SUNNY     52  46  82 CALM      30.08R
GRAND MARAIS     N/A     54  53  97 CALM      30.09R
G MARAIS ARPRT SUNNY     52  48  87 CALM      30.11R
$$
MNZ029>031-032-039>041-046>048-054>057-064-241300-
   West Central Minnesota

CITY           SKY/WX    TMP DP  RH WIND       PRES   REMARKS
FERGUS FALLS   CLEAR     63  61  94 SE9       30.02F
WHEATON        CLEAR     59  55  88 SE8       30.03F
MORRIS         CLEAR     61  57  88 SE8       30.03F
ALEXANDRIA     CLEAR     60  58  92 S3        30.08R
ELBOW LAKE     FAIR      59  58  96 SE7       30.03F
WADENA         CLEAR     54  54 100 CALM      30.05S
GLENWOOD       CLEAR     57  55  94 CALM      30.07R FOG
APPLETON       CLEAR     61  55  82 SE7       30.03S
BENSON         CLEAR     61  57  88 S7        30.07S
ORTONVILLE     CLEAR     59  57  94 SE3       30.03R
MADISON        CLEAR     59  59 100 CALM      30.04S FOG
WILLMAR        FAIR      57  57 100 SE3       30.08R FOG
$$
MNZ033>034-036-042>043-049>051-058-059-241300-
   Central Minnesota

CITY           SKY/WX    TMP DP  RH WIND       PRES   REMARKS
ST CLOUD       FOG       55  55 100 E5        30.06R VSB 1/4
6HR MIN TEMP:  51; 6HR MAX TEMP:  57;

SAUK CENTRE    FOG       53  53 100 CALM      30.08R VSB<1/4
PAYNESVILLE    CLEAR     54  54  98 CALM      30.07R
AITKIN         FOG       54  52  94 CALM      30.07R VSB<1/4
PINE RIVER     SUNNY     54  54 100 CALM      30.09S
BRAINERD       SUNNY     54  54 100 SE3       30.07R
STAPLES        CLEAR     55  54  94 CALM      30.06R
LONG PRAIRIE   FAIR      55  55 100 CALM      30.07R FOG
LITTLE FALLS   SUNNY     54  52  94 CALM      30.07R FOG
LITCHFIELD     CLEAR     59  59 100 SE3       30.07S
BUFFALO        SUNNY     59  56  91 CALM      30.07R
MAPLE LAKE     SUNNY     60  60  99 E3        30.07R
HUTCHINSON     CLEAR     55  55 100 CALM      30.07S FOG
$$
MNZ037-044-045-052-053-241300-
   East Central Minnesota

CITY           SKY/WX    TMP DP  RH WIND       PRES   REMARKS
PRINCETON      PTSUNNY   57  55  94 CALM      30.08R FOG
MORA           FOG       52  52 100 E3        30.10R VSB 1/4
CAMBRIDGE      SUNNY     57  55  94 CALM      30.06S FOG
RUSH CITY      FOG       54  53  97 CALM      30.09R VSB<1/4
MOOSE LAKE     FOG       54  52  94 CALM      30.07R VSB 1/2
HINCKLEY       FOG       52  52 100 CALM      30.09R VSB<1/4
CLOQUET        FOG       54  52  94 E5        30.09S VSB<1/4
MCGREGOR       CLOUDY    52  52 100 CALM      30.08S VSB<1/4
$$
MNZ071>073-080-081-089-090-097-098-241300-
   Southwest Minnesota

CITY           SKY/WX    TMP DP  RH WIND       PRES   REMARKS
MONTEVIDEO     CLEAR     59  59 100 S6        30.05S
GRANITE FALLS  CLEAR     60  58  92 SE5       30.07S
CANBY          CLEAR     56  54  95 CALM      30.06R
MARSHALL       CLEAR     60  59  96 SE7       30.06R FOG
REDWOOD FALLS  CLEAR     59  57  93 E5        30.06R
OLIVIA         CLEAR     57  55  94 SE3       30.06R
PIPESTONE      CLEAR     61  57  88 E6        30.05S
WINDOM         CLEAR     57  55  94 CALM      30.07R FOG
WORTHINGTON    CLEAR     57  56  96 SE3       30.08R FOG
JACKSON        CLEAR     55  55 100 CALM      30.08R FOG
SLAYTON        RAIN      55  48  76 SE3       30.07R VSB 1/4
$$
MNZ065>067-074>077-082>085-091>093-241300-
   South Central Minnesota

CITY           SKY/WX    TMP DP  RH WIND       PRES   REMARKS
MANKATO        CLEAR     60  57  89 E5        30.07R
NEW ULM        CLEAR     59  57  94 NE16G45   30.06S
ST JAMES       CLEAR     57  55  94 CALM      30.08R
FAIRMONT       CLEAR     57  56  96 CALM      30.08R
GLENCOE        CLEAR     58  58 100 CALM      30.07R
FARIBAULT      SUNNY     57  57 100 CALM      30.07R
OWATONNA       SUNNY     57  57 100 CALM      30.06R
WASECA         SUNNY     55  55 100 CALM      30.07R
ALBERT LEA     SUNNY     57  57 100 CALM      30.06R FOG
$$
MNZ078>079-086>088-094>096-241300-
   Southeast Minnesota

CITY           SKY/WX    TMP DP  RH WIND       PRES   REMARKS
ROCHESTER      SUNNY     60  58  92 NE6       30.07R
6HR MIN TEMP:  57; 6HR MAX TEMP:  61;

RED WING       SUNNY     61  55  82 E3        30.06R
STANTON        SUNNY     55  54  95 CALM      30.05R FOG
DODGE CENTER   SUNNY     57  55  94 NE3       30.06R
WINONA         SUNNY     61  55  82 E5        30.07R
AUSTIN         SUNNY     57  55  94 NE3       30.05R
PRESTON        SUNNY     58  56  94 NE5       30.06S
$$
ABBREVIATIONS USED IN REMARKS
   TC - TEMPERATURES IN CELSIUS
  WCI - WIND CHILL INDEX
   HX - HEAT INDEX
  VSB - VISIBILITY
$$



USA.gov is the U.S. government's official web portal to all federal, state and local government web resources and services.